sat.trackr.live / text

‹ back to catalog

NINGXIA-1 7

NORAD 49019 · 2021-064B

PAYLOAD ACTIVE UNKNOWN

§ Identity

Operator
Country
PRC
Launch date
2021-07-09
Launch site
TAISC
Launch vehicle
Mass (kg)
RCS (m²)

External: N2YO · Heavens-Above · Gunter

§ Orbital elements

Epoch: 2026-05-25T05:00:31.891680Z

Period
102.23 min
Inclination
45.0041°
Eccentricity
0.0006470
Mean motion
14.08547451 rev/d
Perigee alt
859.7 km
Apogee alt
869.0 km
Semi-major
7,242.5 km
B*
1.0649e-4
RAAN
331.1426°
Arg perigee
131.0749°
Mean anomaly
229.0648°
Rev number
25,100

§ Raw data

NINGXIA-1 71 49019U 21064B   26145.20870245  .00000052  00000+0  10649-3 0  99912 49019  45.0041 331.1426 0006470 131.0749 229.0648 14.08547451251009

JSON: /api/v1/satellites/49019 · /tle

For live sub-satellite position, see the globe view (requires WebGL).

§ Visibility from observer

Set your observer location to see the next 7 days of passes ≥ 10°. The values pass through the URL so the page stays shareable.

No JS? Fill the form by hand. The geolocation button needs JavaScript.